TimeCDT,TemperatureF,Dew PointF,Humidity,Sea Level PressureIn,VisibilityMPH,Wind Direction,Wind SpeedMPH,Gust SpeedMPH,PrecipitationIn,Events,Conditions,WindDirDegrees,DateUTC
12:15 AM,68.0,62.6,83,29.74,10.0,South,10.4,-,N/A,,Overcast,170,2013-03-18 05:15:00
12:35 AM,68.0,62.6,83,29.73,10.0,South,15.0,18.4,N/A,,Overcast,180,2013-03-18 05:35:00
12:55 AM,66.2,60.8,83,29.73,8.0,South,10.4,-,N/A,,Partly Cloudy,180,2013-03-18 05:55:00
1:15 AM,66.2,60.8,83,29.73,7.0,South,4.6,-,N/A,,Mostly Cloudy,180,2013-03-18 06:15:00
1:35 AM,66.2,60.8,83,29.73,8.0,South,6.9,-,N/A,,Overcast,190,2013-03-18 06:35:00
1:55 AM,66.2,62.6,88,29.74,8.0,SSW,10.4,-,N/A,,Overcast,200,2013-03-18 06:55:00
2:15 AM,68.0,62.6,83,29.74,8.0,South,11.5,-,N/A,,Overcast,190,2013-03-18 07:15:00
2:35 AM,68.0,62.6,83,29.75,8.0,South,9.2,-,N/A,,Overcast,190,2013-03-18 07:35:00
2:55 AM,68.0,62.6,83,29.75,8.0,SSW,10.4,-,N/A,,Overcast,200,2013-03-18 07:55:00
3:15 AM,68.0,62.6,83,29.76,8.0,SSW,9.2,-,N/A,,Overcast,200,2013-03-18 08:15:00
3:35 AM,68.0,62.6,83,29.76,8.0,SSW,6.9,-,N/A,,Overcast,200,2013-03-18 08:35:00
3:55 AM,68.0,62.6,83,29.76,8.0,SW,4.6,-,N/A,,Overcast,220,2013-03-18 08:55:00
4:15 AM,68.0,62.6,83,29.77,8.0,SW,4.6,-,N/A,,Overcast,220,2013-03-18 09:15:00
4:35 AM,68.0,62.6,83,29.77,8.0,SSW,4.6,-,N/A,,Overcast,210,2013-03-18 09:35:00
4:55 AM,66.2,62.6,88,29.76,8.0,SSW,6.9,-,N/A,,Overcast,200,2013-03-18 09:55:00
5:15 AM,66.2,62.6,88,29.76,7.0,SSW,6.9,-,N/A,,Overcast,210,2013-03-18 10:15:00
5:35 AM,66.2,60.8,83,29.77,7.0,SSW,6.9,-,N/A,,Mostly Cloudy,200,2013-03-18 10:35:00
5:55 AM,64.4,60.8,88,29.77,7.0,SW,6.9,-,N/A,,Mostly Cloudy,220,2013-03-18 10:55:00
6:15 AM,64.4,60.8,88,29.78,6.0,SSW,6.9,-,N/A,,Overcast,210,2013-03-18 11:15:00
6:35 AM,66.2,60.8,83,29.79,6.0,SW,5.8,-,N/A,,Overcast,230,2013-03-18 11:35:00
6:50 AM,66.2,60.8,83,29.80,10.0,SW,6.9,-,N/A,,Overcast,230,2013-03-18 11:50:00
7:50 AM,66.2,60.8,83,29.81,5.0,South,6.9,-,N/A,,Scattered Clouds,190,2013-03-18 12:50:00
8:50 AM,66.2,60.8,83,29.81,5.0,SSW,8.1,-,N/A,,Haze,210,2013-03-18 13:50:00
9:50 AM,69.8,62.6,78,29.82,7.0,South,12.7,-,N/A,,Partly Cloudy,190,2013-03-18 14:50:00
10:50 AM,73.4,62.6,69,29.83,7.0,SSW,9.2,-,N/A,,Clear,210,2013-03-18 15:50:00
11:53 AM,80.6,62.6,54,29.82,7.0,South,6.9,-,N/A,,Clear,190,2013-03-18 16:53:00
12:50 PM,84.2,62.6,48,29.80,7.0,SE,3.5,-,N/A,,Clear,130,2013-03-18 17:50:00
1:11 PM,91.4,39.2,16,29.80,10.0,NNW,13.8,19.6,N/A,,Clear,340,2013-03-18 18:11:00
1:50 PM,91.4,39.2,16,29.79,10.0,NNW,15.0,17.3,N/A,,Clear,330,2013-03-18 18:50:00
2:50 PM,93.2,41.0,16,29.77,10.0,North,10.4,24.2,N/A,,Clear,350,2013-03-18 19:50:00
3:50 PM,91.4,39.2,16,29.76,10.0,North,13.8,19.6,N/A,,Clear,350,2013-03-18 20:50:00
4:50 PM,91.4,39.2,16,29.77,10.0,NNW,16.1,21.9,N/A,,Clear,340,2013-03-18 21:50:00
5:50 PM,87.8,39.2,18,29.80,10.0,NNW,13.8,21.9,N/A,,Clear,340,2013-03-18 22:50:00
6:50 PM,82.4,37.4,20,29.84,10.0,North,19.6,-,N/A,,Clear,350,2013-03-18 23:50:00
6:55 PM,82.4,39.2,21,29.84,10.0,North,18.4,-,N/A,,Clear,360,2013-03-18 23:55:00
7:15 PM,80.6,39.2,23,29.85,10.0,North,15.0,-,N/A,,Clear,360,2013-03-19 00:15:00
7:35 PM,80.6,44.6,28,29.85,10.0,NNE,16.1,-,N/A,,Clear,30,2013-03-19 00:35:00
7:55 PM,77.0,44.6,32,29.87,10.0,NNE,16.1,-,N/A,,Clear,30,2013-03-19 00:55:00
8:15 PM,75.2,44.6,34,29.88,10.0,NE,17.3,-,N/A,,Clear,40,2013-03-19 01:15:00
8:35 PM,75.2,44.6,34,29.89,10.0,NNE,18.4,24.2,N/A,,Clear,30,2013-03-19 01:35:00
8:55 PM,73.4,44.6,36,29.91,10.0,NNE,15.0,-,N/A,,Clear,30,2013-03-19 01:55:00
9:15 PM,71.6,44.6,38,29.91,10.0,NNE,16.1,-,N/A,,Clear,30,2013-03-19 02:15:00
9:35 PM,69.8,44.6,40,29.91,10.0,NNE,16.1,-,N/A,,Clear,30,2013-03-19 02:35:00
9:55 PM,69.8,44.6,40,29.92,10.0,NE,15.0,-,N/A,,Clear,40,2013-03-19 02:55:00
10:15 PM,66.2,44.6,46,29.93,10.0,NE,11.5,-,N/A,,Clear,50,2013-03-19 03:15:00
10:55 PM,66.2,44.6,46,29.94,10.0,NNE,13.8,-,N/A,,Clear,30,2013-03-19 03:55:00
11:15 PM,64.4,44.6,49,29.95,10.0,NNE,15.0,-,N/A,,Clear,30,2013-03-19 04:15:00
11:35 PM,64.4,44.6,49,29.95,10.0,NNE,15.0,-,N/A,,Clear,30,2013-03-19 04:35:00
11:55 PM,64.4,44.6,49,29.96,10.0,NNE,13.8,-,N/A,,Clear,30,2013-03-19 04:55:00